• en France
  • Liste des pays
  • À 7 jours
  • Température de l'eau
  • Carte satellitaire
  • Carte météo
  • Widgets météo
  • user-avatar
    Se connecter

    Météo par heure à Popova Loschina

    Ce jour, 20 Mai, Dimanche

    Heure Température Précipitation Vent Pression Humidité
    00:00 +13°C° 0 mm 2 m/s 744 mmHg 95%
    01:00 +13°C° 0 mm 2 m/s 744 mmHg 95%
    02:00 +13°C° 0 mm 2 m/s 745 mmHg 96%
    03:00 +12°C° 0 mm 2 m/s 744 mmHg 97%
    04:00 +13°C° 0 mm 2 m/s 745 mmHg 96%
    05:00 +13°C° 0 mm 2 m/s 745 mmHg 95%
    06:00 +13°C° 0 mm 2 m/s 746 mmHg 94%
    07:00 +15°C° 0 mm 2 m/s 746 mmHg 90%
    08:00 +16°C° 0 mm 2 m/s 747 mmHg 85%
    09:00 +17°C° 0 mm 2 m/s 747 mmHg 80%
    10:00 +18°C° 0,1 mm 2 m/s 747 mmHg 76%
    11:00 +18°C° 0,1 mm 2 m/s 747 mmHg 73%
    12:00 +19°C° 0,1 mm 2 m/s 748 mmHg 69%
    13:00 +19°C° 0,3 mm 2 m/s 748 mmHg 69%
    14:00 +20°C° 0,3 mm 3 m/s 748 mmHg 68%
    15:00 +20°C° 0,3 mm 3 m/s 748 mmHg 67%
    16:00 +20°C° 0,4 mm 3 m/s 748 mmHg 70%
    17:00 +19°C° 0,4 mm 3 m/s 748 mmHg 74%
    18:00 +19°C° 0,4 mm 3 m/s 748 mmHg 77%
    19:00 +17°C° 0,2 mm 4 m/s 749 mmHg 79%
    20:00 +15°C° 0,2 mm 4 m/s 749 mmHg 81%
    21:00 +14°C° 0,2 mm 4 m/s 750 mmHg 84%
    22:00 +13°C° 0 mm 5 m/s 750 mmHg 83%
    23:00 +12°C° 0 mm 5 m/s 750 mmHg 83%

    Demain, 21 Mai, Lundi

    Heure Température Précipitation Vent Pression Humidité
    00:00 +12°C° 0 mm 5 m/s 751 mmHg 83%
    01:00 +10°C° 0 mm 5 m/s 751 mmHg 83%
    02:00 +10°C° 0 mm 5 m/s 751 mmHg 84%
    03:00 +9°C° 0 mm 5 m/s 752 mmHg 84%
    04:00 +9°C° 0 mm 5 m/s 752 mmHg 83%
    05:00 +9°C° 0 mm 5 m/s 752 mmHg 81%
    06:00 +9°C° 0 mm 5 m/s 752 mmHg 80%
    07:00 +9°C° 0,1 mm 6 m/s 753 mmHg 77%
    08:00 +10°C° 0,1 mm 6 m/s 753 mmHg 74%
    09:00 +10°C° 0,1 mm 7 m/s 753 mmHg 70%
    10:00 +11°C° 0,6 mm 6 m/s 754 mmHg 70%
    11:00 +13°C° 0,6 mm 6 m/s 754 mmHg 70%
    12:00 +13°C° 0,6 mm 6 m/s 754 mmHg 70%
    13:00 +14°C° 0,4 mm 5 m/s 754 mmHg 70%
    14:00 +14°C° 0,4 mm 5 m/s 754 mmHg 70%
    15:00 +15°C° 0,4 mm 5 m/s 754 mmHg 70%
    16:00 +15°C° 0 mm 5 m/s 754 mmHg 71%
    17:00 +15°C° 0 mm 5 m/s 754 mmHg 72%
    18:00 +15°C° 0 mm 4 m/s 754 mmHg 73%
    19:00 +15°C° 0 mm 5 m/s 754 mmHg 74%
    20:00 +14°C° 0 mm 5 m/s 755 mmHg 74%
    21:00 +13°C° 0 mm 5 m/s 755 mmHg 75%
    22:00 +13°C° 0 mm 5 m/s 755 mmHg 75%
    23:00 +13°C° 0 mm 5 m/s 755 mmHg 75%

    Après-demain, 22 Mai, Mardi

    Heure Température Précipitation Vent Pression Humidité
    00:00 +12°C° 0 mm 5 m/s 755 mmHg 75%
    01:00 +12°C° 0 mm 5 m/s 755 mmHg 76%
    02:00 +10°C° 0 mm 5 m/s 756 mmHg 76%
    03:00 +10°C° 0 mm 5 m/s 756 mmHg 76%
    04:00 +10°C° 0 mm 5 m/s 756 mmHg 77%
    05:00 +10°C° 0 mm 5 m/s 756 mmHg 78%
    06:00 +10°C° 0 mm 5 m/s 756 mmHg 79%
    07:00 +12°C° 0 mm 5 m/s 756 mmHg 76%
    08:00 +14°C° 0 mm 5 m/s 756 mmHg 73%
    09:00 +15°C° 0 mm 6 m/s 756 mmHg 70%
    10:00 +17°C° 0 mm 6 m/s 756 mmHg 67%
    11:00 +19°C° 0 mm 6 m/s 756 mmHg 65%
    12:00 +20°C° 0 mm 6 m/s 756 mmHg 63%
    13:00 +21°C° 0 mm 6 m/s 756 mmHg 63%
    14:00 +22°C° 0 mm 6 m/s 756 mmHg 63%
    15:00 +23°C° 0 mm 5 m/s 756 mmHg 63%
    16:00 +23°C° 0 mm 5 m/s 755 mmHg 66%
    17:00 +22°C° 0 mm 4 m/s 755 mmHg 69%
    18:00 +22°C° 0 mm 4 m/s 755 mmHg 72%
    19:00 +21°C° 0 mm 4 m/s 755 mmHg 77%
    20:00 +20°C° 0 mm 4 m/s 755 mmHg 81%
    21:00 +18°C° 0 mm 3 m/s 755 mmHg 86%
    22:00 +18°C° 0,3 mm 3 m/s 755 mmHg 86%
    23:00 +17°C° 0,3 mm 3 m/s 755 mmHg 87%

    23 Mai, Mercredi

    Heure Température Précipitation Vent Pression Humidité
    00:00 +17°C° 0,3 mm 3 m/s 755 mmHg 88%
    01:00 +16°C° 0,2 mm 3 m/s 755 mmHg 88%
    02:00 +16°C° 0,2 mm 3 m/s 755 mmHg 87%
    03:00 +14°C° 0,2 mm 3 m/s 755 mmHg 87%
    04:00 +16°C° 0 mm 3 m/s 755 mmHg 86%
    05:00 +16°C° 0 mm 3 m/s 755 mmHg 85%
    06:00 +16°C° 0 mm 3 m/s 755 mmHg 83%
    07:00 +17°C° 0 mm 3 m/s 755 mmHg 81%
    08:00 +18°C° 0 mm 3 m/s 755 mmHg 78%
    09:00 +18°C° 0 mm 3 m/s 755 mmHg 75%
    10:00 +19°C° 0 mm 3 m/s 755 mmHg 72%
    11:00 +20°C° 0 mm 4 m/s 754 mmHg 69%
    12:00 +21°C° 0 mm 4 m/s 754 mmHg 66%
    13:00 +22°C° 0 mm 4 m/s 754 mmHg 64%
    14:00 +23°C° 0 mm 4 m/s 753 mmHg 62%
    15:00 +23°C° 0 mm 4 m/s 753 mmHg 60%
    16:00 +23°C° 0 mm 4 m/s 753 mmHg 63%
    17:00 +24°C° 0 mm 3 m/s 752 mmHg 66%
    18:00 +24°C° 0 mm 3 m/s 752 mmHg 69%
    19:00 +21°C° 0 mm 2 m/s 752 mmHg 75%
    20:00 +20°C° 0 mm 2 m/s 752 mmHg 81%
    21:00 +18°C° 0 mm 2 m/s 751 mmHg 87%
    22:00 +18°C° 0 mm 2 m/s 751 mmHg 89%
    23:00 +18°C° 0 mm 1 m/s 751 mmHg 90%

    24 Mai, Jeudi

    Heure Température Précipitation Vent Pression Humidité
    00:00 +18°C° 0 mm 1 m/s 751 mmHg 91%
    01:00 +18°C° 0,1 mm 1 m/s 751 mmHg 92%
    02:00 +18°C° 0,1 mm 1 m/s 751 mmHg 93%
    03:00 +16°C° 0,1 mm 1 m/s 750 mmHg 94%
    04:00 +18°C° 0,7 mm 1 m/s 750 mmHg 93%
    05:00 +18°C° 0,7 mm 1 m/s 750 mmHg 93%
    06:00 +19°C° 0,7 mm 1 m/s 750 mmHg 92%
    07:00 +20°C° 0,8 mm 1 m/s 750 mmHg 89%
    08:00 +21°C° 0,8 mm 1 m/s 750 mmHg 86%
    09:00 +21°C° 0,8 mm 2 m/s 750 mmHg 83%
    10:00 +21°C° 0,8 mm 2 m/s 750 mmHg 80%
    11:00 +23°C° 0,8 mm 2 m/s 750 mmHg 76%
    12:00 +24°C° 0,8 mm 2 m/s 750 mmHg 73%
    13:00 +24°C° 0,6 mm 2 m/s 750 mmHg 73%
    14:00 +24°C° 0,6 mm 2 m/s 749 mmHg 74%
    15:00 +24°C° 0,6 mm 2 m/s 749 mmHg 74%
    16:00 +23°C° 0,4 mm 2 m/s 749 mmHg 77%
    17:00 +23°C° 0,4 mm 2 m/s 749 mmHg 79%
    18:00 +23°C° 0,4 mm 1 m/s 749 mmHg 81%
    19:00 +22°C° 0,7 mm 1 m/s 749 mmHg 83%
    20:00 +20°C° 0,7 mm 1 m/s 749 mmHg 84%
    21:00 +19°C° 0,7 mm 1 m/s 749 mmHg 86%
    22:00 +18°C° 0 mm 2 m/s 750 mmHg 88%
    23:00 +17°C° 0 mm 2 m/s 750 mmHg 90%

    25 Mai, Vendredi

    Heure Température Précipitation Vent Pression Humidité
    00:00 +17°C° 0 mm 3 m/s 750 mmHg 92%
    01:00 +16°C° 0,1 mm 3 m/s 750 mmHg 93%
    02:00 +15°C° 0,1 mm 4 m/s 750 mmHg 94%
    03:00 +14°C° 0,1 mm 5 m/s 751 mmHg 95%
    04:00 +14°C° 0,4 mm 6 m/s 751 mmHg 94%
    05:00 +14°C° 0,4 mm 6 m/s 752 mmHg 93%
    06:00 +12°C° 0,4 mm 7 m/s 752 mmHg 93%
    07:00 +12°C° 0 mm 7 m/s 753 mmHg 91%
    08:00 +11°C° 0 mm 7 m/s 753 mmHg 90%
    09:00 +10°C° 0 mm 7 m/s 754 mmHg 89%
    10:00 +11°C° 0 mm 7 m/s 754 mmHg 85%
    11:00 +12°C° 0 mm 7 m/s 755 mmHg 81%
    12:00 +12°C° 0 mm 7 m/s 755 mmHg 78%
    13:00 +14°C° 0 mm 7 m/s 755 mmHg 74%
    14:00 +15°C° 0 mm 7 m/s 756 mmHg 70%
    15:00 +17°C° 0 mm 6 m/s 756 mmHg 65%
    16:00 +16°C° 0 mm 6 m/s 756 mmHg 66%
    17:00 +16°C° 0 mm 6 m/s 756 mmHg 66%
    18:00 +15°C° 0 mm 5 m/s 756 mmHg 66%
    19:00 +14°C° 0 mm 5 m/s 757 mmHg 68%
    20:00 +12°C° 0 mm 4 m/s 757 mmHg 69%
    21:00 +11°C° 0 mm 4 m/s 758 mmHg 70%
    22:00 +10°C° 0 mm 4 m/s 758 mmHg 72%
    23:00 +8°C° 0 mm 4 m/s 758 mmHg 73%
    Voir plus